Voltar ao catálogo

SL-3 DEB

AtivoPO
NORAD 15769·DEBRIS·🇷🇺 Russia

Lançado May 14, 1981 de Plesetsk Cosmodrome

Loading…

Próximas Passagens (próximas 24 horas)

TLE

AtualizadoSource: Space-Track

Época: Sep 14, 2026, 13:35 UTC

1 15769U 81043C   26257.56641162 -.00000131  00000-0 -84413-4 0  9998
2 15769  81.2738 104.7286 0061909  37.2261 323.3176 14.07264226167152

Acompanhe SL-3 DEB em tempo real com AllMySat

Download on the App Store